VOLGA DEB, 44621

Orbit data source: Space-Track

VOLGA DEB, 44621 is space debris in SSO originally from a launch on Wed, 10 Jul 2019 UTC launched from the Plesetsk Missile And Space Complex (PKMTR). Debris objects in space refer to the collection of defunct objects orbiting the Earth. Examples of debris include non-operational satellites, rocket bodies, and fragments generated from explosions, collisions, or faulty payload assembly.

Loading next visibility...
Identifier
44621, 2019-039F
Orbit
SSO
Country
Flag of CISCIS
Related business
Manufacturer
TSKHM?
Mission
Spacecraft
Bus & Motor
NAPRAZHENIYE?, Unknown motor
Mass
~47 kg wet, ~47 kg dry
Launch date (UTC)
2019-07-10 (7 years ago)
Launch vehicle
Unknown
Launch site
Plesetsk Missile And Space Complex (PKMTR)
Object type
Payload
Rocket body
Debris
Shape & HBR
Unknown shape, 0.1 m
Radar Cross Section
Small (<0.1 m²)

Expand to show TLE details & history
Last TLE update: 18 hours ago

TLE from 18 hours ago
0 VOLGA DEB
1 44621U 19039F   26118.29572961  .00003743  00000-0  33446-3 0  9998
2 44621  97.5815 145.9277 0009585  54.4599 305.7515 14.96457755368985
Epoch: 2026-04-28T07:05Z
TLE epoch observation values (Epoch: 2026-04-28T07:05:51.038Z)
Latitude
-0.00004°
Longitude
-176.80804°
Altitude
577.013 km
Speed
7.574 km/s
True Right ascension
09h 43m 42s
True Declination
0° 00' 00"
Sunlit
Object was in daylight at epoch
Visualization orbit readout
Latitude
Unknown
Longitude
Unknown
Altitude
Unknown
Speed
Unknown
Apparent Right ascension
Unknown
Apparent Declination
Unknown
Sunlit
N/A
Visualization observer readout
Local Sidereal Time
08:18:31
Azimuth
Unknown
Elevation
Unknown
Doppler factor
Unknown
Orbital elements
Apogee altitude
581.521 km
Perigee altitude
568.192 km
Semi-major axis
6,952.994 km
Eccentricity
0.00096
Inclination
97.5815°
RAAN
145.9277°
Arg. of periapsis
54.4599°
True anomaly
305.6623°
Mean anomaly
305.7515°
Eccentric anomaly
305.70691°
Mean motion
3.74357 °/min
Orbital period
96.17 mins
BSTAR
0.00033446
Loading maneuver chart data...
Computing Atmospheric mass density...

Documentation

Showing up to 5 results
|